Regional Weather Roundup
Issued by NWS

Home | Current Version | Previous Version | Text Only | Print | Product List | Glossary On
Versions: 1 2 3 4 5 6 7 8 9 10 11 12 13 14 15 16 17 18 19 20 21 22 23 24 25 26 27
000
ASUS44 KBMX 270810
RWRAL

ALABAMA REGIONAL WEATHER ROUNDUP
NATIONAL WEATHER SERVICE BIRMINGHAM AL
300 AM CDT SAT AUG 27 2016

NOTE: "FAIR" INDICATES FEW OR NO CLOUDS BELOW 12,000 FEET
WITH NO SIGNIFICANT WEATHER AND/OR OBSTRUCTIONS TO VISIBILITY.

THE REMARK "TC" DENOTES TEMPERATURE IN DEGREES CELSIUS.

ALZ001>011-014-016>018-020-270900-
NORTH ALABAMA

CITY           SKY/WX    TMP DP  RH WIND       PRES   REMARKS
MUSCLE SHOALS  CLEAR     72  69  90 CALM      30.06F
HUNTSVILLE     CLEAR     72  71  97 CALM      30.05F
DECATUR        CLEAR     71  70  96 NE3       30.05F
HALEYVILLE     FAIR      71  70  96 CALM      30.07F
GADSDEN        CLEAR     72  71  97 CALM      30.05F
$$

ALZ012-013-022-023-030>036-040>044-270900-
WEST CENTRAL ALABAMA

CITY           SKY/WX    TMP DP  RH WIND       PRES   REMARKS
TUSCALOOSA     CLEAR     74  74 100 CALM      30.00F
$$

ALZ015-024>027-033>036-040>044-270900-
CENTRAL ALABAMA

CITY           SKY/WX    TMP DP  RH WIND       PRES   REMARKS
BIRMINGHAM     CLEAR     77  72  84 CALM      30.05F
MONTGOMERY     CLEAR     76  69  79 CALM      30.01S
SHELBY CO ARPT CLEAR     75  71  87 CALM      30.03F
MAXWELL AFB    CLEAR     75  73  92 W1        30.00S
GREENVILLE     FAIR      73  69  87 CALM      30.01S
$$

ALZ019-021-028-029-037-038-045>048-270900-
EAST CENTRAL ALABAMA

CITY           SKY/WX    TMP DP  RH WIND       PRES   REMARKS
ANNISTON       CLEAR     75  70  84 CALM      30.04F
ALEXANDER CITY PTCLDY    77  77 100 CALM      30.04S
AUBURN         NOT AVBL
$$

ALZ051>064-270900-
SOUTHWEST ALABAMA

CITY           SKY/WX    TMP DP  RH WIND       PRES   REMARKS
MOBILE         CLEAR     74  71  91 CALM      30.00R
BROOKLEY FIELD CLEAR     76  75  97 NW5       30.00R
EVERGREEN      CLEAR     71  69  93 CALM      30.01S
$$

ALZ049-050-065>069-270900-
SOUTHEAST ALABAMA

CITY           SKY/WX    TMP DP  RH WIND       PRES   REMARKS
DOTHAN         CLEAR     75  72  90 E7        30.03F
OZARK          CLEAR     73  70  91 NE5       29.99F
TROY           CLEAR     72  70  93 CALM      30.02F
EUFAULA        FAIR      72  69  90 CALM      30.01F
$$




USA.gov is the U.S. government's official web portal to all federal, state and local government web resources and services.